Flight Track Log - Related Links

Times and Time Zones

All times are in EDT time to prevent confusion due to time zone crossing. See the ASQ6151 flight status page for this flight to view local times or setup timezone preferences in your user account.


Time Position Orientation Groundspeed Altitude Reporting Facility
EDT Latitude Longitude Course Direction KTS MPH feet Rate Location/Type
Sun 06:07:49 PM 37.3089 -80.0006 293° West 167 192 2,500  Level Indianapolis Center
Sun 06:08:06 PM 37.2992 -80.0147 229° Southwest 188 216 3,000 2,026 Climbing Washington Center
Sun 06:09:06 PM 37.3072 -80.0725 280° West 178 205 5,100 2,390 Climbing Washington Center
Sun 06:10:04 PM 37.3361 -80.1369 299° West 185 213 7,700 2,746 Climbing Washington Center
Sun 06:11:04 PM 37.3692 -80.2044 302° West 207 238 10,500 1,736 Climbing Washington Center
Sun 06:12:05 PM 37.4056 -80.2875 299° West 246 283 11,200 934 Climbing Washington Center
Sun 06:13:00 PM 37.4688 -80.3564 293° West  Level FlightAware Approximate
Sun 06:13:06 PM 37.4494 -80.3872 299° West 293 337 12,400  Level Washington Center
Sun 06:14:04 PM 37.4992 -80.4975 300° West 332 382 14,400 1,866 Climbing Washington Center
Sun 06:15:05 PM 37.5450 -80.6000 299° West 337 388 16,100 1,344 Climbing Washington Center
Sun 06:17:07 PM 37.6358 -80.7967 300° West 340 391 18,500 1,174 Climbing Indianapolis Center
Sun 06:18:09 PM 37.6828 -80.9006 300° West 347 399 19,700 1,500 Climbing Indianapolis Center
Sun 06:19:11 PM 37.7369 -81.0236 299° West 345 397 21,600 1,500 Climbing Indianapolis Center
Sun 06:20:13 PM 37.8017 -81.1125 313° West 354 407 22,800 677 Climbing Indianapolis Center
Sun 06:21:15 PM 37.8775 -81.2031 317° Northwest 365 420 23,000 581 Climbing Indianapolis Center
Sun 06:22:17 PM 37.9550 -81.2950 317° Northwest 378 435 24,000 1,161 Climbing Indianapolis Center
Sun 06:23:19 PM 38.0286 -81.3850 316° Northwest 369 425 25,400 1,403 Climbing Indianapolis Center
Sun 06:24:21 PM 38.1019 -81.4675 318° Northwest 354 407 26,900 1,548 Climbing Indianapolis Center
Sun 06:25:23 PM 38.2006 -81.5494 327° Northwest 353 406 28,600 1,597 Climbing Indianapolis Center
Sun 06:26:25 PM 38.2789 -81.6156 326° Northwest 342 394 30,200 1,597 Climbing Indianapolis Center
Sun 06:27:27 PM 38.3489 -81.6831 323° Northwest 314 361 31,900 1,452 Climbing Indianapolis Center
Sun 06:28:29 PM 38.4083 -81.7600 315° West 301 346 33,200 1,113 Climbing Indianapolis Center
Sun 06:29:31 PM 38.4683 -81.8344 316° Northwest 299 344 34,200 968 Climbing Indianapolis Center
Sun 06:30:33 PM 38.5281 -81.9111 315° West 300 345 35,200 871 Climbing Indianapolis Center
Sun 06:31:35 PM 38.5878 -81.9861 316° Northwest 300 345 36,000 387 Climbing Indianapolis Center
Sun 06:32:37 PM 38.6494 -82.0647 315° West 308 354 36,000  Level Indianapolis Center
Sun 06:33:39 PM 38.7306 -82.1678 315° West 340 391 36,000  Level Indianapolis Center
Sun 06:34:41 PM 38.8017 -82.2594 315° West 356 410 36,000  Level Indianapolis Center
Sun 06:35:43 PM 38.8767 -82.3569 315° West 378 435 36,000  Level Indianapolis Center
Sun 06:36:45 PM 38.9533 -82.4558 315° West 387 445 36,000  Level Indianapolis Center
Sun 06:37:47 PM 39.0306 -82.5564 315° West 393 452 36,000  Level Indianapolis Center
Sun 06:38:49 PM 39.1075 -82.6550 315° West 390 449 36,000  Level Indianapolis Center
Sun 06:39:51 PM 39.1925 -82.7650 315° West 383 441 36,000  Level Indianapolis Center
Sun 06:40:53 PM 39.2683 -82.8628 315° West 381 438 36,000  Level Indianapolis Center
Sun 06:41:55 PM 39.3444 -82.9611 315° West 382 440 36,000  Level Indianapolis Center
Sun 06:42:57 PM 39.4189 -83.0597 314° West 381 438 36,000  Level Indianapolis Center
Sun 06:43:59 PM 39.4953 -83.1611 314° West 388 447 36,000  Level Indianapolis Center
Sun 06:45:01 PM 39.5708 -83.2617 314° West 387 445 36,000  Level Indianapolis Center
Sun 06:46:03 PM 39.6619 -83.3817 315° West 392 451 36,000  Level Indianapolis Center
Sun 06:47:05 PM 39.7392 -83.4842 314° West 391 450 36,000  Level Indianapolis Center
Sun 06:48:07 PM 39.8169 -83.5911 313° West 392 451 36,000  Level Indianapolis Center
Sun 06:49:09 PM 39.8958 -83.6953 315° West 392 451 36,000  Level Indianapolis Center
Sun 06:50:11 PM 39.9739 -83.8006 314° West 397 457 36,000  Level Indianapolis Center
Sun 06:51:13 PM 40.0519 -83.9047 314° West 397 457 36,000  Level Indianapolis Center
Sun 06:52:16 PM 40.1292 -84.0100 314° West 398 458 36,000  Level Indianapolis Center
Sun 06:53:18 PM 40.2072 -84.1164 314° West 400 460 36,000  Level Indianapolis Center
Sun 06:54:20 PM 40.2844 -84.2200 314° West 395 455 36,000 -435 Level Indianapolis Center
Sun 06:55:22 PM 40.3597 -84.3231 314° West 389 448 35,100 -968 Descending Indianapolis Center
Sun 06:56:24 PM 40.4436 -84.4406 313° West 377 434 34,000 -532 Descending Indianapolis Center
Sun 06:57:26 PM 40.5167 -84.5406 314° West 375 432 34,000  Level Indianapolis Center
Sun 06:58:28 PM 40.5900 -84.6419 314° West 379 436 34,000  Level Indianapolis Center
Sun 06:59:30 PM 40.6636 -84.7447 313° West 383 441 34,000  Level Indianapolis Center
Sun 07:00:34 PM 40.7306 -84.8736 304° West 379 436 34,000  Level Chicago Center
Sun 07:01:36 PM 40.7883 -84.9914 303° West 382 440 34,000  Level Chicago Center
Sun 07:02:38 PM 40.8456 -85.1108 302° West 383 441 34,000  Level Chicago Center
Sun 07:03:41 PM 40.9025 -85.2297 302° West 384 442 34,000  Level Chicago Center
Sun 07:04:43 PM 40.9597 -85.3489 302° West 384 442 34,000 -484 Level Chicago Center
Sun 07:05:45 PM 41.0161 -85.4675 302° West 381 438 33,000 -1,694 Descending Chicago Center
Sun 07:06:47 PM 41.0831 -85.6078 302° West 376 433 30,500 -2,274 Descending Chicago Center
Sun 07:07:49 PM 41.1386 -85.7258 302° West 376 433 28,300 -2,032 Descending Chicago Center
Sun 07:08:51 PM 41.1969 -85.8506 302° West 388 447 26,300 -1,597 Descending Chicago Center
Sun 07:09:53 PM 41.2533 -85.9706 302° West 387 445 25,000 -629 Descending Chicago Center
Sun 07:10:55 PM 41.2994 -86.0989 296° West 382 440 25,000 -387 Level Chicago Center
Sun 07:11:57 PM 41.3317 -86.2314 288° West 377 434 24,200 -1,210 Descending Chicago Center
Sun 07:12:59 PM 41.3661 -86.3647 289° West 380 437 22,500 -1,935 Descending Chicago Center
Sun 07:14:01 PM 41.4056 -86.5203 289° West 371 427 20,200 -1,887 Descending Chicago Center
Sun 07:15:03 PM 41.4353 -86.6469 287° West 362 417 18,600 -1,452 Descending Chicago Center
Sun 07:16:05 PM 41.4661 -86.7656 289° West 358 412 17,200 -1,512 Descending Chicago Center
Sun 07:17:06 PM 41.4950 -86.8900 287° West 353 406 15,500 -1,512 Descending Chicago Center
Sun 07:18:08 PM 41.5314 -87.0344 289° West 346 398 14,100 -1,355 Descending Chicago Center
Sun 07:19:10 PM 41.5603 -87.1528 288° West 338 389 12,700 -1,333 Descending Chicago Center
Sun 07:19:38 PM 41.5667 -87.2167 278° West 327 376 12,100 -951 Descending Chicago TRACON
Sun 07:20:32 PM 41.6167 -87.3000 309° West 318 366 11,400 -688 Descending Chicago TRACON
Sun 07:21:14 PM 41.6478 -87.3525 308° West 314 361 11,000 -231 Descending Chicago Center
Sun 07:22:16 PM 41.6928 -87.4500 302° West 310 357 11,000 -387 Level Chicago Center
Sun 07:23:18 PM 41.7331 -87.5633 295° West 283 326 10,200 -550 Descending Chicago Center
Sun 07:24:27 PM 41.7833 -87.6333 314° West 252 290 9,800 -558 Descending Chicago TRACON
Sun 07:25:27 PM 41.8333 -87.7000 315° West 245 282 9,000 -381 Descending Chicago TRACON
Sun 07:26:33 PM 41.8667 -87.7833 298° West 238 274 9,000  Level Chicago TRACON
Sun 07:27:27 PM 41.8833 -87.8500 289° West 196 226 9,000  Level Chicago TRACON
Sun 07:28:27 PM 41.8833 -87.9167 270° West 178 205 9,000  Level Chicago TRACON
Sun 07:29:27 PM 41.8833 -87.9833 270° West 185 213 9,000 -250 Level Chicago TRACON
Sun 07:30:27 PM 41.8833 -88.0500 270° West 187 215 8,500 -842 Descending Chicago TRACON
Sun 07:31:21 PM 41.8833 -88.1167 270° West 186 214 7,400 -1,250 Descending Chicago TRACON
Sun 07:32:27 PM 41.8833 -88.1833 270° West 171 197 6,000 -1,190 Descending Chicago TRACON
Sun 07:33:22 PM 41.8833 -88.2500 270° West 167 192 5,000 -857 Descending Chicago TRACON
Sun 07:33:37 PM 41.8892 -88.2461 26° Northeast 170 196 5,000 -78 Level Chicago Center
Sun 07:34:39 PM 41.9414 -88.2575 351° North 178 205 4,900 -97 Descending Chicago Center
Sun 07:35:41 PM 41.9675 -88.2094 54° Northeast 168 193 4,800 -532 Descending Chicago Center
Sun 07:36:43 PM 41.9675 -88.1392 90° East 184 212 3,800 -1,074 Descending Chicago Center
Sun 07:37:16 PM 41.9667 -88.1000 92° East 185 213 3,100 -1,097 Descending Chicago TRACON
Sun 07:38:16 PM 41.9667 -88.0333 90° East 174 200 2,100 -900 Descending Chicago TRACON
Sun 07:39:16 PM 41.9667 -87.9667 90° East 151 174 1,300 -800 Descending Chicago TRACON
Sun 07:41:00 PM 41.9667 -87.9000 66° East  Level FlightAware Approximate

Login

Don't have an account? Register now (free) for customized features, flight alerts, and more!